Baltimore, MD

11:54 AM EST on December 12, 2017 (GMT -0500)
Baltimore-Washington International

Weather History for KBWI - October, 2011

Change the Weather History Date:

Monday, October 31, 2011

  Actual Average Record
Temperature  
Mean Temperature 43 °F 51 °F  
Max Temperature 56 °F 62 °F 85 °F (1946)
Min Temperature 30 °F 41 °F 25 °F (1966)
Degree Days  
Heating Degree Days 22 14  
Month to date heating degree days 261 294  
Since 1 July heating degree days 288 347  
Cooling Degree Days 0 0  
Month to date cooling degree days 9 18  
Year to date cooling degree days 1558 1163  
Moisture  
Dew Point 34 °F    
Average Humidity 70    
Maximum Humidity 96    
Minimum Humidity 43    
Precipitation  
Precipitation 0.00 in 0.11 in 1.50 in (1926)
Month to date precipitation 3.31 3.33  
Year to date precipitation 49.57 35.21  
Snow  
Snow 0.00 in 0.00 in 0.10 in (1925)
Month to date snowfall T 0.0  
Since 1 July snowfall T 0.0  
Snow Depth 0.00 in    
Sea Level Pressure  
Sea Level Pressure 30.32 in    
Wind  
Wind Speed 3 mph (ESE)    
Max Wind Speed 15 mph    
Max Gust Speed 20 mph    
Visibility 10 miles    
Events      
T = Trace of Precipitation, MM = Missing Value Source: NWS Daily Summary

Daily Weather History Graph

Daily Weather History Graph

Search for Another Location

Airport or City:

Trip Planner

Search our weather history database for the weather conditions in past years. The results will help you decide how hot, cold, wet, or windy it might be!

Date:

Astronomy

Oct. 31, 2011 Rise Set
Actual Time 7:32 AM EDT 6:07 PM EDT
Civil Twilight 7:05 AM EDT 6:34 PM EDT
Nautical Twilight 6:33 AM EDT 7:06 PM EDT
Astronomical Twilight 6:02 AM EDT 7:37 PM EDT
Moon 12:37 PM EDT (10/31) 10:41 PM EDT (10/31)
Length of Visible Light 11h 29m
Length of Day
10h 34m
Waxing Crescent, 29% of the Moon is Illuminated
Oct 31
Waxing Crescent
Nov 2
First Quarter
Nov 10
Full
Nov 18
Last Quarter
Nov 25
New

Hourly Weather History & Observations

Time (EDT) Temp. Windchill Dew Point Humidity Pressure Visibility Wind Dir Wind Speed Gust Speed Precip Events Conditions
12:54 AM 32.0 °F - 30.0 °F 92% 30.37 in 10.0 mi Calm Calm - N/A   Partly Cloudy
1:54 AM 32.0 °F - 30.0 °F 92% 30.37 in 10.0 mi Calm Calm - N/A   Clear
2:54 AM 30.9 °F - 28.9 °F 92% 30.38 in 10.0 mi Calm Calm - N/A   Clear
3:54 AM 30.0 °F - 28.0 °F 92% 30.36 in 10.0 mi Calm Calm - N/A   Partly Cloudy
4:54 AM 30.0 °F - 28.9 °F 96% 30.36 in 10.0 mi Calm Calm - N/A   Scattered Clouds
5:54 AM 30.0 °F - 28.0 °F 92% 30.37 in 10.0 mi Calm Calm - N/A   Mostly Cloudy
6:54 AM 30.9 °F - 28.9 °F 92% 30.38 in 10.0 mi Calm Calm - N/A   Mostly Cloudy
7:54 AM 32.0 °F - 30.0 °F 92% 30.38 in 10.0 mi Calm Calm - N/A   Mostly Cloudy
8:54 AM 34.0 °F - 32.0 °F 92% 30.39 in 10.0 mi Calm Calm - N/A   Mostly Cloudy
9:54 AM 41.0 °F 39.0 °F 37.0 °F 86% 30.38 in 10.0 mi WNW 3.5 mph - N/A   Mostly Cloudy
10:54 AM 48.9 °F - 39.0 °F 69% 30.37 in 10.0 mi Calm Calm - N/A   Mostly Cloudy
11:54 AM 53.1 °F - 36.0 °F 52% 30.34 in 10.0 mi SE 6.9 mph - N/A   Mostly Cloudy
12:54 PM 54.0 °F - 35.1 °F 49% 30.32 in 10.0 mi South 8.1 mph - N/A   Mostly Cloudy
1:54 PM 54.0 °F - 33.1 °F 45% 30.29 in 10.0 mi SSE 9.2 mph - N/A   Mostly Cloudy
2:54 PM 55.0 °F - 34.0 °F 45% 30.28 in 10.0 mi SE 8.1 mph - N/A   Mostly Cloudy
3:54 PM 54.0 °F - 34.0 °F 47% 30.27 in 10.0 mi SE 8.1 mph - N/A   Mostly Cloudy
4:54 PM 54.0 °F - 34.0 °F 47% 30.28 in 10.0 mi SE 4.6 mph - N/A   Mostly Cloudy
5:54 PM 51.1 °F - 36.0 °F 56% 30.27 in 10.0 mi East 4.6 mph - N/A   Mostly Cloudy
6:54 PM 48.0 °F - 37.0 °F 66% 30.26 in 10.0 mi East 4.6 mph - N/A   Mostly Cloudy
7:54 PM 48.2 °F - 37.4 °F 66% 30.27 in 10.0 mi Calm Calm - N/A   Overcast
8:54 PM 48.9 °F - 37.0 °F 64% 30.27 in 10.0 mi NE 4.6 mph - N/A   Scattered Clouds
9:54 PM 48.0 °F - 37.9 °F 68% 30.28 in 10.0 mi Calm Calm - N/A   Mostly Cloudy
10:54 PM 48.0 °F - 37.0 °F 66% 30.27 in 10.0 mi North 4.6 mph - N/A   Overcast
11:54 PM 48.0 °F - 39.9 °F 74% 30.26 in 10.0 mi NNE 5.8 mph - N/A   Overcast